Boulder Muni, Boulder, CO, CO

4:32 AM MDT on October 21, 2019 (GMT -0600)
Boulder Muni, Boulder, CO

Weather History for KBDU - August, 2019

Change the Weather History Date:

Thursday, August 29, 2019

  Actual Average Record
Temperature  
Mean Temperature 76 °F -  
Max Temperature 88 °F - 93 °F (2013)
Min Temperature 63 °F - 50 °F (2014)
Degree Days  
Heating Degree Days 0    
Month to date heating degree days 0  
Cooling Degree Days 11    
Month to date cooling degree days 278  
Growing Degree Days 26 (Base 50)    
Moisture  
Dew Point 34 °F    
Average Humidity 36    
Maximum Humidity 60    
Minimum Humidity 12    
Precipitation  
Precipitation 0.00 in - 0.06 in (2014)
Snow  
Snow 0.00 in - - ()
Snow Depth 0.00 in    
Sea Level Pressure  
Sea Level Pressure 30.14 in    
Wind  
Wind Speed 6 mph (West)    
Max Wind Speed 13 mph    
Max Gust Speed 17 mph    
Visibility 10 miles    
Events      
T = Trace of Precipitation, MM = Missing Value Source: NWS Daily Summary

Daily Weather History Graph

Daily Weather History Graph

Search for Another Location

Airport or City:

Astronomy

Aug. 29, 2019 Rise Set
Actual Time 6:25 AM MDT 7:37 PM MDT
Civil Twilight 5:57 AM MDT 8:05 PM MDT
Nautical Twilight 5:24 AM MDT 8:38 PM MDT
Astronomical Twilight 4:49 AM MDT 9:13 PM MDT
Moon 5:14 AM MDT (8/29) 7:35 PM MDT (8/29)
Length of Visible Light 14h 07m
Length of Day
13h 11m
Waning Crescent, 1% of the Moon is Illuminated
Aug 29
Waning Crescent
Aug 30
New
Sep 5
First Quarter
Sep 13
Full
Sep 21
Last Quarter

Hourly Weather History & Observations

Time (MDT) Temp. Dew Point Humidity Pressure Visibility Wind Dir Wind Speed Gust Speed Precip Events Conditions
12:12 AM 73.4 °F 23.0 °F 15% 30.08 in 10.0 mi SSW 3.5 mph - N/A   Clear
12:30 AM 64.4 °F 28.4 °F 26% 30.08 in 10.0 mi Calm Calm - N/A   Clear
12:48 AM 66.2 °F 26.6 °F 23% 30.08 in 10.0 mi Calm Calm - N/A   Clear
1:12 AM 68.0 °F 33.8 °F 28% 30.08 in 10.0 mi WSW 4.6 mph - N/A   Clear
1:30 AM 73.4 °F 23.0 °F 15% 30.07 in 10.0 mi SW 11.5 mph - N/A   Clear
1:48 AM 75.2 °F 23.0 °F 14% 30.07 in 10.0 mi WSW 8.1 mph - N/A   Clear
2:12 AM 75.2 °F 23.0 °F 14% 30.07 in 10.0 mi WSW 8.1 mph - N/A   Clear
2:30 AM 73.4 °F 23.0 °F 15% 30.07 in 10.0 mi WSW 5.8 mph - N/A   Clear
2:48 AM 73.4 °F 23.0 °F 15% 30.07 in 10.0 mi WSW 6.9 mph - N/A   Clear
3:12 AM 75.2 °F 23.0 °F 14% 30.07 in 10.0 mi WSW 11.5 mph - N/A   Clear
3:30 AM 73.4 °F 26.6 °F 18% 30.07 in 10.0 mi NE 3.5 mph - N/A   Clear
3:48 AM 66.2 °F 28.4 °F 24% 30.07 in 10.0 mi Calm Calm - N/A   Clear
4:12 AM 73.4 °F 23.0 °F 15% 30.07 in 10.0 mi West 4.6 mph - N/A   Clear
4:30 AM 73.4 °F 23.0 °F 15% 30.07 in 10.0 mi SW 10.4 mph - N/A   Clear
4:48 AM 75.2 °F 23.0 °F 14% 30.07 in 10.0 mi WSW 10.4 mph - N/A   Clear
5:12 AM 73.4 °F 23.0 °F 15% 30.08 in 10.0 mi SW 9.2 mph - N/A   Clear
5:30 AM 71.6 °F 24.8 °F 17% 30.08 in 10.0 mi Calm Calm - N/A   Clear
5:48 AM 71.6 °F 24.8 °F 17% 30.09 in 10.0 mi Calm Calm - N/A   Clear
6:12 AM 73.4 °F 23.0 °F 15% 30.10 in 10.0 mi WSW 9.2 mph - N/A   Clear
6:30 AM 75.2 °F 23.0 °F 14% 30.10 in 10.0 mi WSW 9.2 mph - N/A   Clear
6:48 AM 77.0 °F 24.8 °F 14% 30.11 in 10.0 mi WSW 8.1 mph - N/A   Clear
7:12 AM 77.0 °F 26.6 °F 16% 30.11 in 10.0 mi WSW 10.4 mph - N/A   Clear
7:30 AM 78.8 °F 26.6 °F 15% 30.11 in 10.0 mi WSW 6.9 mph - N/A   Clear
7:48 AM 78.8 °F 26.6 °F 15% 30.11 in 10.0 mi WSW 12.7 mph 17.3 mph N/A   Clear
8:12 AM 80.6 °F 28.4 °F 15% 30.12 in 10.0 mi WSW 9.2 mph 17.3 mph N/A   Clear
8:30 AM 82.4 °F 30.2 °F 15% 30.12 in 10.0 mi West 3.5 mph - N/A   Clear
8:48 AM 82.4 °F 30.2 °F 15% 30.12 in 10.0 mi NW 4.6 mph - N/A   Clear
9:12 AM 86.0 °F 28.4 °F 12% 30.12 in 10.0 mi West 10.4 mph - N/A   Clear
9:30 AM 87.8 °F 28.4 °F 12% 30.13 in 10.0 mi WNW 9.2 mph - N/A   Clear
9:48 AM 87.8 °F 33.8 °F 15% 30.13 in 10.0 mi Calm Calm - N/A   Clear
10:12 AM 86.0 °F 28.4 °F 12% 30.14 in 10.0 mi WNW 9.2 mph - N/A   Clear
10:30 AM 86.0 °F 28.4 °F 12% 30.14 in 10.0 mi West 6.9 mph - N/A   Clear
10:48 AM 86.0 °F 28.4 °F 12% 30.14 in 10.0 mi West 12.7 mph 17.3 mph N/A   Clear
11:12 AM 86.0 °F 28.4 °F 12% 30.15 in 10.0 mi West 10.4 mph - N/A   Clear
11:30 AM 87.8 °F 28.4 °F 12% 30.15 in 10.0 mi West 10.4 mph - N/A   Clear
11:49 AM 86.0 °F 28.4 °F 12% 30.15 in 10.0 mi West 11.5 mph - N/A   Clear
12:12 PM 86.0 °F 28.4 °F 12% 30.15 in 10.0 mi West 10.4 mph - N/A   Clear
12:30 PM 86.0 °F 28.4 °F 12% 30.15 in 10.0 mi West 8.1 mph - N/A   Clear
12:48 PM 86.0 °F 30.2 °F 13% 30.14 in 10.0 mi West 8.1 mph - N/A   Clear
1:13 PM 86.0 °F 30.2 °F 13% 30.14 in 10.0 mi WSW 5.8 mph - N/A   Clear
1:31 PM 87.8 °F 30.2 °F 13% 30.13 in 10.0 mi WSW 6.9 mph - N/A   Clear
1:49 PM 87.8 °F 30.2 °F 13% 30.12 in 10.0 mi SW 6.9 mph - N/A   Clear
2:12 PM 87.8 °F 30.2 °F 13% 30.11 in 10.0 mi SSW 5.8 mph - N/A   Clear
2:30 PM 87.8 °F 32.0 °F 14% 30.11 in 10.0 mi East 4.6 mph - N/A   Clear
2:48 PM 86.0 °F 33.8 °F 15% 30.11 in 10.0 mi East 4.6 mph - N/A   Clear
3:12 PM 87.8 °F 41.0 °F 19% 30.13 in 10.0 mi NE 16.1 mph 21.9 mph N/A   Clear
3:30 PM 86.0 °F 41.0 °F 20% 30.13 in 10.0 mi NE 13.8 mph 19.6 mph N/A   Clear
3:48 PM 84.2 °F 41.0 °F 22% 30.14 in 10.0 mi NE 11.5 mph - N/A   Clear
4:12 PM 86.0 °F 41.0 °F 20% 30.14 in 10.0 mi NNE 11.5 mph - N/A   Clear
4:30 PM 84.2 °F 44.6 °F 25% 30.14 in 10.0 mi ENE 10.4 mph - N/A   Clear
4:48 PM 84.2 °F 42.8 °F 23% 30.15 in 10.0 mi ENE 10.4 mph - N/A   Clear
5:12 PM 82.4 °F 44.6 °F 26% 30.16 in 10.0 mi ENE 9.2 mph - N/A   Clear
5:30 PM 80.6 °F 42.8 °F 26% 30.16 in 10.0 mi ENE 5.8 mph - N/A   Clear
5:48 PM 80.6 °F 42.8 °F 26% 30.17 in 10.0 mi NE 6.9 mph - N/A   Clear
6:08 PM 78.8 °F 42.8 °F 28% 30.17 in 10.0 mi NNE 3.5 mph - N/A   Clear
6:32 PM 78.8 °F 42.8 °F 28% 30.17 in 10.0 mi North 6.9 mph - N/A   Clear
6:50 PM 77.0 °F 42.8 °F 29% 30.18 in 10.0 mi Calm Calm - N/A   Clear
7:12 PM 77.0 °F 44.6 °F 32% 30.18 in 10.0 mi Calm Calm - N/A   Clear
7:30 PM 73.4 °F 48.2 °F 41% 30.18 in 10.0 mi Calm Calm - N/A   Clear
7:48 PM 73.4 °F 46.4 °F 38% 30.18 in 10.0 mi Calm Calm - N/A   Clear
8:12 PM 71.6 °F 50.0 °F 46% 30.20 in 10.0 mi West 3.5 mph - N/A   Clear
8:30 PM 71.6 °F 48.2 °F 43% 30.20 in 10.0 mi Calm Calm - N/A   Clear
8:48 PM 69.8 °F 48.2 °F 46% 30.21 in 10.0 mi Calm Calm - N/A   Clear
9:12 PM 68.0 °F 48.2 °F 49% 30.22 in 10.0 mi WNW 3.5 mph - N/A   Clear
9:30 PM 69.8 °F 46.4 °F 43% 30.22 in 10.0 mi Calm Calm - N/A   Clear
9:48 PM 68.0 °F 46.4 °F 46% 30.22 in 10.0 mi NW 3.5 mph - N/A   Clear
10:12 PM 68.0 °F 46.4 °F 46% 30.22 in 10.0 mi North 4.6 mph - N/A   Clear
10:30 PM 64.4 °F 48.2 °F 56% 30.22 in 10.0 mi NNE 4.6 mph - N/A   Clear
10:48 PM 64.4 °F 50.0 °F 59% 30.22 in 10.0 mi Calm Calm - N/A   Clear
11:12 PM 64.4 °F 48.2 °F 56% 30.22 in 10.0 mi Calm Calm - N/A   Clear
11:30 PM 64.4 °F 46.4 °F 52% 30.22 in 10.0 mi NNW 4.6 mph - N/A   Clear
11:53 PM 62.6 °F 48.2 °F 59% 30.22 in 10.0 mi NW 3.5 mph - N/A   Clear